This is the latest recevied weather packets stored in our database for station/object HP1MRA-15. If no packets are shown the sender has not sent any weather packets the latest 10 day(s).
| Time | Temp. | Humidity | Pressure | Rain* | Wind** | Luminosity | Snow |
|---|---|---|---|---|---|---|---|
| 1787936095 | 36.67° C | 72% | 1001.2 hPa | 0 mm | - | - | - |
| 1787935798 | 35.56° C | 68% | 1001.1 hPa | 0 mm | - | - | - |
| 1787935498 | 35° C | 70% | 1000.9 hPa | 0 mm | - | - | - |
| 1787935196 | 34.44° C | 71% | 1000.8 hPa | 0 mm | - | - | - |
| 1787934897 | 33.89° C | 73% | 1000.8 hPa | 0 mm | - | - | - |
| 1787934598 | - | - | 1000.8 hPa | 0 mm | - | - | - |
| 1787934295 | 32.78° C | 75% | 1000.9 hPa | 0 mm | - | - | - |
| 1787933997 | 32.22° C | 74% | 1000.9 hPa | 0 mm | - | - | - |
| 1787933698 | 31.67° C | 75% | 1001.1 hPa | 0 mm | - | - | - |
| 1787933397 | 31.11° C | 75% | 1001.2 hPa | 0 mm | - | - | - |
| 1787933396 | 31.11° C | 75% | 1001.3 hPa | 0 mm | - | - | - |
| 1787933097 | 30.56° C | 74% | 1001.1 hPa | 0 mm | - | - | - |
| 1787932797 | 30° C | 73% | 1001.3 hPa | 0 mm | - | - | - |
| 1787932497 | 30° C | 75% | 1001.5 hPa | 0 mm | - | - | - |
| 1787932495 | 30° C | 75% | 1001.5 hPa | 0 mm | - | - | - |
| 1787932197 | 28.89° C | 77% | 1001.7 hPa | 0 mm | - | - | - |
| 1787931897 | 28.33° C | 77% | 1002.1 hPa | 0 mm | - | - | - |
| 1787931597 | 27.78° C | 77% | 1002.2 hPa | 0.25 mm | - | - | - |
| 1787931595 | 27.78° C | 77% | 1002.2 hPa | 0.25 mm | - | - | - |
| 1787931297 | 27.78° C | 76% | 1002.3 hPa | 0.25 mm | - | - | - |
| 1787930997 | 27.78° C | 77% | 1002.2 hPa | 0.51 mm | - | - | - |
| 1787930697 | 27.78° C | 77% | 1002.3 hPa | 0.51 mm | - | - | - |
| 1787930695 | 27.78° C | 77% | 1002.3 hPa | 0.51 mm | - | - | - |
| 1787930097 | 28.33° C | 77% | 1002.5 hPa | 0.51 mm | - | - | - |
| 1787929797 | 28.33° C | 77% | 1002.8 hPa | 0.51 mm | - | - | - |
* Rain latest hour (hover to see other rain measurements)
** Current wind speed in m/s (hover to see current wind gust speed)